Location: Unspecified
(0.0000°N, 0.0000°E)
Time: 15:46:04
(UTC+00:00)

STARLINK-31685 - Visible Passes

Search period start: 12 July 2025 00:00
Search period end: 22 July 2025 00:00
Orbit: 482 x 484 km, 43.0° (Epoch: 12 July)

Date Brightness Start Highest point End Pass type
(mag) Time Alt. Az. Time Alt. Az. Time Alt. Az.
20 Jul 4.4 19:20:44 10° SSW 19:23:11 29° SSE 19:23:11 29° SSE visible
21 Jul 4.0 18:53:28 10° SSW 18:56:53 32° SE 18:59:35 14° ENE visible
21 Jul 6.7 20:33:33 10° W 20:34:03 12° WNW 20:34:03 12° WNW visible
